Regional Weather Roundup
Issued by NWS State College, PA

Home | Current Version | Previous Version | Text Only | Print | Product List | Glossary Off
Versions: 1 2 3 4 5 6 7 8 9 10 11 12 13 14 15 16 17 18 19 20 21 22 23 24 25 26 27 28 29 30 31 32 33 34 35 36 37 38 39 40 41 42 43 44 45 46 47 48 49 50

000
ASUS41 KCTP 041710
RWRCTP

REGIONAL WEATHER ROUNDUP
NATIONAL WEATHER SERVICE STATE COLLEGE PA
100 PM EDT SAT JUL 04 2015

Note: "fair" indicates few or no clouds below 12,000 feet with no
significant weather and/or obstructions to visibility.

* = STATION THAT DOES NOT REPORT PRECIPITATION /E.G. RAIN...SNOW...ETC/
    THUNDER OR FOG.

PAZ002>004-007>009-013>016-020>023-029>032-041800-
WESTERN PENNSYLVANIA

CITY           SKY/WX    TMP DP  RH WIND       PRES   REMARKS
ERIE           SUNNY     70  55  59 N6        29.98S
MEADVILLE      SUNNY     74  53  48 VRB6      29.98S
FRANKLIN*      PTSUNNY   73  59  60 N7        29.98S
NEW CASTLE     FAIR      77  60  55 W7        29.98R
BEAVER COUNTY  NOT AVBL
BUTLER*        MOSUNNY   75  64  69 N5        29.98S
PITTSBURGH INT MOSUNNY   77  63  61 VRB7      29.96S
PITTSBURGH     MOSUNNY   76  62  62 NW7       29.95S
INDIANA*       CLOUDY    70  64  83 CALM      30.00R
LATROBE        PTSUNNY   72  68  88 NW3       29.96S
WASHINGTON CO* NOT AVBL
$$

PAZ004>006-010>012-017>019-024>028-033>037-041-042-045-046-049>053-041800-
CENTRAL PENNSYLVANIA

CITY           SKY/WX    TMP DP  RH WIND       PRES   REMARKS
BRADFORD       MOSUNNY   73  57  57 CALM      29.97F
DUBOIS         PTSUNNY   75  61  61 NE7       29.96S
CLEARFIELD     CLOUDY    66  63  90 NE5       29.98R FOG
JOHNSTOWN      PTSUNNY   66  62  87 NW7       29.98R
ALTOONA        CLOUDY    66  63  90 NE5       29.96S
STATE COLLEGE  CLOUDY    64  63  94 CALM      29.96S FOG
WILLIAMSPORT   CLOUDY    65  62  90 CALM      29.95S
SELINSGROVE    LGT RAIN  67  64  90 VRB3      29.96S FOG
FT INDIANTOWN  CLOUDY    67  62  84 E8        29.95S
CAPITAL CITY   CLOUDY    68  64  87 E8        29.93F
HARRISBURG     CLOUDY    69  63  81 E10       29.93S
YORK           CLOUDY    67  64  90 E5        29.94S FOG
$$

PAZ038>040-043-044-047-048-054-055-060>062-067>071-041800-
EASTERN PENNSYLVANIA

CITY           SKY/WX    TMP DP  RH WIND       PRES   REMARKS
SCRANTON       LGT RAIN  65  61  87 NE5       29.98S
MOUNT POCONO   LGT RAIN  60  57  89 E8        30.01F FOG
ALLENTOWN      CLOUDY    68  63  84 NE12      29.96F HAZE
QUAKERTOWN*    CLOUDY    66  63  88 E6        29.97F
READING        LGT RAIN  69  60  73 VRB6      29.95S
LANCASTER      CLOUDY    69  64  84 E9        29.94F
COATESVILLE    CLOUDY    70  66  88 NE6       29.96F
POTTSTOWN      LGT RAIN  67  63  87 E5        29.96F
BLUE BELL      CLOUDY    68  63  83 NE5       29.95F
DOYLESTOWN     LGT RAIN  69  64  84 NE9       29.96F
WILLOW GROVE   NOT AVBL
NORTH PHILA    LGT RAIN  72  62  71 NE12      29.96S
PHILADELPHIA   LGT RAIN  73  65  75 NE9       29.93F
$$


USA.gov is the U.S. government's official web portal to all federal, state and local government web resources and services.